This demonstration page uses our WeatherBlox Daily Observations layout. Learn more.

Left ArrowRight Arrow

40.97296, -117.73568

Hourly Observations for January 20, 2022

Temp ( °F °C ) Dew Point ( °F °C ) Humidity (%) Winds ( mph kmh ) Pressure ( in mb ) Visibility ( mi km ) Precip ( " mm )
12:56 am 00:56 Clear 27 -2.8 23 -5 85 85 E 3 6 30.47 1032 10 16 0.00 0.00
1:56 am 01:56 Clear 26 -3.3 23 -5 88 88 SSE 8 13 30.47 1032 10 16 0.00 0.00
2:56 am 02:56 Clear 27 -2.8 23 -5 85 85 SE 3 6 30.48 1032 10 16 0.00 0.00
3:56 am 03:56 Clear 24 -4.4 21 -6.1 88 88 Calm 30.49 1032 10 16 0.00 0.00
4:56 am 04:56 Clear 22 -5.6 19 -7.2 89 89 Calm 30.50 1033 10 16 0.00 0.00
5:56 am 05:56 Clear 21 -6.1 18 -7.8 88 88 Calm 30.52 1034 10 16 0.00 0.00
6:56 am 06:56 Clear 24 -4.4 21 -6.1 88 88 ESE 7 11 30.52 1034 10 16 0.00 0.00
7:56 am 07:56 Sunny 27 -2.8 23 -5 85 85 ENE 3 6 30.51 1033 10 16 0.00 0.00
8:56 am 08:56 Sunny 32 0 26 -3.3 79 79 SE 5 7 30.50 1033 10 16 0.00 0.00
9:56 am 09:56 Sunny 38 3.3 28 -2.2 68 68 Calm 30.48 1032 10 16 0.00 0.00
10:56 am 10:56 Sunny 43 6.1 29 -1.7 58 58 Calm 30.46 1032 10 16 0.00 0.00
11:56 am 11:56 Sunny 46 7.8 30 -1.1 54 54 SSW 5 7 30.42 1030 10 16 0.00 0.00
12:56 pm 12:56 Sunny 50 10 33 0.6 52 52 S 9 15 30.35 1028 10 16 0.00 0.00
1:56 pm 13:56 Mostly Cloudy 52 11.1 32 0 47 47 S 10 17 30.33 1027 10 16 0.00 0.00
2:56 pm 14:56 Partly Cloudy 50 10 33 0.6 52 52 S 9 15 30.31 1026 10 16 0.00 0.00
3:56 pm 15:56 Mostly Cloudy 51 10.6 32 0 48 48 SSW 9 15 30.30 1026 10 16 0.00 0.00
4:56 pm 16:56 Mostly Cloudy 47 8.3 31 -0.6 54 54 S 6 9 30.31 1027 10 16 0.00 0.00
5:56 pm 17:56 Clear 41 5 31 -0.6 67 67 Calm 30.33 1027 10 16 0.00 0.00
6:56 pm 18:56 Clear 40 4.4 31 -0.6 70 70 S 9 15 30.33 1027 10 16 0.00 0.00
7:56 pm 19:56 Clear 36 2.2 30 -1.1 79 79 SSE 5 7 30.32 1027 10 16 0.00 0.00
8:56 pm 20:56 Mostly Cloudy 34 1.1 29 -1.7 82 82 Calm 30.30 1026 10 16 0.00 0.00
9:56 pm 21:56 Clear 34 1.1 29 -1.7 82 82 ESE 3 6 30.29 1026 10 16 0.00 0.00
10:56 pm 22:56 Mostly Cloudy 30 -1.1 26 -3.3 85 85 Calm 30.27 1025 10 16 0.00 0.00
11:56 pm 23:56 Cloudy 31 -0.6 28 -2.2 89 89 Calm 30.27 1025 10 16 0.00 0.00

Powered by AerisWeather